{"data":{"norad_id":69583,"intl_designator":"2026-138B","name":"CENTISPACE-1 GROUP 05 O*","alt_names":[],"object_type":"PAYLOAD","status":"ACTIVE","operator":null,"country":"PRC","launch_date":"2026-06-17","launch_site_code":"JSC","launch_vehicle":null,"mission":null,"orbit_class":"UNKNOWN","rcs_meters":null,"size_class":null,"mass_kg":null,"dimensions":null,"purposes":[],"wikipedia_slug":null,"has_3d_model":false,"image_url":null,"decayed_at":null,"tle_current":{"epoch":"2026-09-18T05:23:34.829088Z","epoch_age_seconds":225550,"freshness":"STALE","line1":"1 69583U 26138B   26261.22470867 -.00332793  00000+0 -21077+0 0  9998","line2":"2 69583  55.1412 298.3449 0005511 237.1922 122.8517 14.05766058 13189","mean_motion":14.05766058,"eccentricity":0.0005511,"inclination_deg":55.1412,"raan_deg":298.3449,"arg_perigee_deg":237.1922,"mean_anomaly_deg":122.8517,"bstar":-0.21077,"rev_number":1318,"period_min":102.43525171242,"perigee_km":869.89997600058,"apogee_km":877.89316740331,"semimajor_km":7252.0335717019,"source":"CELESTRAK","updated_at":"2026-09-20T09:00:24.995658Z"}}}